Погода в Нырско

Чехия     49°17′33″N   13°08′21″E
темп.,
°C
ветер,
м/с
пор.,
м/с
влажн.,
%
обл.,
%
осадки,
мм/ч
давл.,
гПа
погр.,
м
29 ноября, пн
пн2901:00−3зюз129599 0.4 100086
04:00−4зюз1199100 0.4 100132
07:00−4з129896 0.8 100369
10:00−2з259096 0.6 1005464
13:00−2з488392 0.8 1006786
16:00−2зюз5108556 0.1 1007939
19:00−3зюз51294100 0.6 1009923
22:00−2з4109598 0.9 1012840
30 ноября, вт
вт3001:00−2з41095100 1.6 1013864
04:00−2зюз41296100 1.0 10131068
07:00−2зюз7149390 2.1 10121043
10:00−2зюз102091100 1.8 10111128
13:00−2зюз112392100 4.4 10081146
16:00−1зюз102296100 5.1 10071319
19:000з92097100 9.6 10081244
22:000з81797100 2.4 10101076
1 декабря, ср
ср101:00+1зюз61697100 3.2 1010929
04:00+1зюз61698100 1.3 1009858
07:00+2зюз61698100 2.1 1007946
10:00+2юз71797100 0.5 1005952
13:00+3юз71797100 0.6 10011041
16:00+3юз61697100 1.8 999983
19:00+3юз61698100 3.4 9971005
22:00+3зюз81698100 1.9 9971130
2 декабря, чт
чт201:00+2зюз61398100 2.7 998924
04:00+1зюз61297100 0.2 999871
07:00+1зюз5119396 0.3 999774
10:00+1зюз399698 0.3 1000668
13:000з26100100 1.4 1000478
16:00−1з3796100 0.6 1002738
19:00−1з389399 0.8 1005797
22:00−3зюз369399 0.1 1007330
3 декабря, пт
пт301:00−2з3791100 0.6 1008720
04:00−3з389394 0.4 1010782
07:00−4зюз3109377 0.5 1011503
10:00−3зюз4119099 0.3 1011787
13:00−2зюз51090100 0.6 10101002
16:00−4юз359098 0.1 1009151
19:00−3ююз31090100 0.1 1007591
22:00−3юз51591100 0.6 10051204